Overview Statistics Trail Chart Weather Telemetry Raw packets
 

This is the latest recevied weather packets stored in our database for station/object N6GPM. If no packets are shown the sender has not sent any weather packets the latest 10 day(s).

<< 76 77 78 79 80 81 82 >>
Time Temp. Humidity Pressure Rain* Wind** Luminosity Snow
1788130911 32.22° C 39% 1015 hPa 0 mm - 585 W/m² -
1788130606 32.78° C 38% 1015 hPa 0 mm - 604 W/m² -
1788130301 32.22° C 39% 1015 hPa 0 mm - 630 W/m² -
1788129999 32.22° C 40% 1015.4 hPa 0 mm - 646 W/m² -
1788129696 32.78° C 41% 1015.2 hPa 0 mm - 661 W/m² -
1788129393 32.78° C 41% 1015.4 hPa 0 mm - 673 W/m² -
1788129092 32.78° C 41% 1015.3 hPa 0 mm - 694 W/m² -
1788128786 32.78° C 41% 1015.4 hPa 0 mm - 712 W/m² -
1788128483 32.78° C 39% 1015.5 hPa 0 mm - 725 W/m² -
1788128188 33.33° C 38% 1015.3 hPa 0 mm - 739 W/m² -
1788127874 32.78° C 39% 1015.5 hPa 0 mm - 760 W/m² -
1788127569 33.33° C 37% 1015.6 hPa 0 mm - 765 W/m² -
1788127262 33.89° C 36% 1015.7 hPa 0 mm - 786 W/m² -
1788126962 33.89° C 35% 1015.5 hPa 0 mm - 793 W/m² -
1788126656 33.33° C 35% 1015.8 hPa 0 mm - 808 W/m² -
1788126351 33.89° C 35% 1015.7 hPa 0 mm - 821 W/m² -
1788126046 33.89° C 35% 1015.6 hPa 0 mm - 833 W/m² -
1788125746 33.33° C 33% 1015.9 hPa 0 mm - 833 W/m² -
1788125441 33.89° C 33% 1016 hPa 0 mm - 853 W/m² -
1788125136 33.89° C 33% 1016.2 hPa 0 mm - 865 W/m² -
1788124826 33.89° C 33% 1016 hPa 0 mm - 875 W/m² -
1788124520 33.89° C 31% 1016.3 hPa 0 mm - 888 W/m² -
1788124215 33.89° C 33% 1016 hPa 0 mm - 897 W/m² -
1788123915 33.33° C 32% 1016.1 hPa 0 mm - 900 W/m² -
1788123609 33.89° C 34% 1016.2 hPa 0 mm - 913 W/m² -

* Rain latest hour (hover to see other rain measurements)
** Current wind speed in m/s (hover to see current wind gust speed)